Year,Month,Day,Hour,Minute,Value (Times are PST for temperature in C)
2020,04,17,00,00,10.60
2020,04,17,00,01,10.60
2020,04,17,00,02,10.60
2020,04,17,00,03,10.60
2020,04,17,00,04,10.60
2020,04,17,00,05,10.60
2020,04,17,00,06,10.50
2020,04,17,00,07,10.40
2020,04,17,00,08,10.40
2020,04,17,00,09,10.40
2020,04,17,00,10,10.40
2020,04,17,00,11,10.40
2020,04,17,00,12,10.40
2020,04,17,00,13,10.40
2020,04,17,00,14,10.40
2020,04,17,00,15,10.40
2020,04,17,00,16,10.40
2020,04,17,00,17,10.40
2020,04,17,00,18,10.40
2020,04,17,00,19,10.40
2020,04,17,00,20,10.60
2020,04,17,00,21,10.60
2020,04,17,00,22,10.60
2020,04,17,00,23,10.60
2020,04,17,00,24,10.60
2020,04,17,00,25,10.60
2020,04,17,00,26,10.60
2020,04,17,00,27,10.70
2020,04,17,00,28,10.70
2020,04,17,00,29,10.80
2020,04,17,00,30,10.80
2020,04,17,00,31,10.80
2020,04,17,00,32,10.90
2020,04,17,00,33,10.90
2020,04,17,00,34,10.80
2020,04,17,00,35,10.80
2020,04,17,00,36,10.80
2020,04,17,00,37,10.70
2020,04,17,00,38,10.60
2020,04,17,00,39,10.50
2020,04,17,00,40,10.40
2020,04,17,00,41,10.40
2020,04,17,00,42,10.40
2020,04,17,00,43,10.40
2020,04,17,00,44,10.40
2020,04,17,00,45,10.40
2020,04,17,00,46,10.40
2020,04,17,00,47,10.50
2020,04,17,00,48,10.60
2020,04,17,00,49,10.60
2020,04,17,00,50,10.60
2020,04,17,00,51,10.60
2020,04,17,00,52,10.70
2020,04,17,00,53,10.70
2020,04,17,00,54,10.70
2020,04,17,00,55,10.70
2020,04,17,00,56,10.70
2020,04,17,00,57,10.70
2020,04,17,00,58,10.70
2020,04,17,00,59,10.70
2020,04,17,01,00,10.70
2020,04,17,01,01,10.70
2020,04,17,01,02,10.70
2020,04,17,01,03,10.70
2020,04,17,01,04,10.80
2020,04,17,01,05,10.80
2020,04,17,01,06,10.80
2020,04,17,01,07,10.80
2020,04,17,01,08,10.80
2020,04,17,01,09,10.80
2020,04,17,01,10,10.90
2020,04,17,01,11,10.80
2020,04,17,01,12,10.80
2020,04,17,01,13,10.80
2020,04,17,01,14,10.80
2020,04,17,01,15,10.80
2020,04,17,01,16,10.70
2020,04,17,01,17,10.70
2020,04,17,01,18,10.70
2020,04,17,01,19,10.60
2020,04,17,01,20,10.60
2020,04,17,01,21,10.50
2020,04,17,01,22,10.40
2020,04,17,01,23,10.20
2020,04,17,01,24,10.10
2020,04,17,01,25,9.90
2020,04,17,01,26,9.80
2020,04,17,01,27,9.80
2020,04,17,01,28,9.70
2020,04,17,01,29,9.70
2020,04,17,01,30,9.60
2020,04,17,01,31,9.50
2020,04,17,01,32,9.50
2020,04,17,01,33,9.40
2020,04,17,01,34,9.40
2020,04,17,01,35,9.40
2020,04,17,01,36,9.40
2020,04,17,01,37,9.40
2020,04,17,01,38,9.40
2020,04,17,01,39,9.30
2020,04,17,01,40,9.30
2020,04,17,01,41,9.30
2020,04,17,01,42,9.30
2020,04,17,01,43,9.20
2020,04,17,01,44,9.20
2020,04,17,01,45,9.20
2020,04,17,01,46,9.20
2020,04,17,01,47,9.20
2020,04,17,01,48,9.20
2020,04,17,01,49,9.20
2020,04,17,01,50,9.10
2020,04,17,01,51,9.10
2020,04,17,01,52,9.10
2020,04,17,01,53,9.10
2020,04,17,01,54,9.10
2020,04,17,01,55,9.10
2020,04,17,01,56,9.10
2020,04,17,01,57,9.10
2020,04,17,01,58,9.10
2020,04,17,01,59,9.10
2020,04,17,02,00,9.10
2020,04,17,02,01,9.10
2020,04,17,02,02,9.10
2020,04,17,02,03,9.10
2020,04,17,02,04,9.00
2020,04,17,02,05,9.00
2020,04,17,02,06,9.00
2020,04,17,02,07,8.90
2020,04,17,02,08,8.80
2020,04,17,02,09,8.80
2020,04,17,02,10,8.70
2020,04,17,02,11,8.60
2020,04,17,02,12,8.50
2020,04,17,02,13,8.50
2020,04,17,02,14,8.40
2020,04,17,02,15,8.30
2020,04,17,02,16,8.30
2020,04,17,02,17,8.20
2020,04,17,02,18,8.20
2020,04,17,02,19,8.10
2020,04,17,02,20,8.10
2020,04,17,02,21,8.00
2020,04,17,02,22,8.00
2020,04,17,02,23,7.90
2020,04,17,02,24,7.90
2020,04,17,02,25,7.80
2020,04,17,02,26,7.80
2020,04,17,02,27,7.80
2020,04,17,02,28,7.70
2020,04,17,02,29,7.70
2020,04,17,02,30,7.70
2020,04,17,02,31,7.60
2020,04,17,02,32,7.60
2020,04,17,02,33,7.60
2020,04,17,02,34,7.50
2020,04,17,02,35,7.50
2020,04,17,02,36,7.50
2020,04,17,02,37,7.50
2020,04,17,02,38,7.50
2020,04,17,02,39,7.50
2020,04,17,02,40,7.50
2020,04,17,02,41,7.50
2020,04,17,02,42,7.50
2020,04,17,02,43,7.50
2020,04,17,02,44,7.50
2020,04,17,02,45,7.50
2020,04,17,02,46,7.50
2020,04,17,02,47,7.40
2020,04,17,02,48,7.40
2020,04,17,02,49,7.30
2020,04,17,02,50,7.30
2020,04,17,02,51,7.20
2020,04,17,02,52,7.10
2020,04,17,02,53,7.10
2020,04,17,02,54,7.00
2020,04,17,02,55,7.00
2020,04,17,02,56,6.90
2020,04,17,02,57,6.90
2020,04,17,02,58,6.80
2020,04,17,02,59,6.80
2020,04,17,03,00,6.80
2020,04,17,03,01,6.80
2020,04,17,03,02,6.80
2020,04,17,03,03,6.80
2020,04,17,03,04,6.80
2020,04,17,03,05,6.80
2020,04,17,03,06,6.80
2020,04,17,03,07,6.80
2020,04,17,03,08,6.80
2020,04,17,03,09,6.80
2020,04,17,03,10,6.80
2020,04,17,03,11,6.80
2020,04,17,03,12,6.80
2020,04,17,03,13,6.80
2020,04,17,03,14,6.90
2020,04,17,03,15,6.90
2020,04,17,03,16,6.90
2020,04,17,03,17,6.90
2020,04,17,03,18,6.90
2020,04,17,03,19,6.90
2020,04,17,03,20,6.90
2020,04,17,03,21,6.90
2020,04,17,03,22,6.90
2020,04,17,03,23,6.90
2020,04,17,03,24,6.80
2020,04,17,03,25,6.80
2020,04,17,03,26,6.80
2020,04,17,03,27,6.80
2020,04,17,03,28,6.80
2020,04,17,03,29,6.80
2020,04,17,03,30,6.80
2020,04,17,03,31,6.80
2020,04,17,03,32,6.70
2020,04,17,03,33,6.70
2020,04,17,03,34,6.70
2020,04,17,03,35,6.60
2020,04,17,03,36,6.60
2020,04,17,03,37,6.60
2020,04,17,03,38,6.60
2020,04,17,03,39,6.60
2020,04,17,03,40,6.60
2020,04,17,03,41,6.60
2020,04,17,03,42,6.60
2020,04,17,03,43,6.60
2020,04,17,03,44,6.50
2020,04,17,03,45,6.40
2020,04,17,03,46,6.40
2020,04,17,03,47,6.40
2020,04,17,03,48,6.40
2020,04,17,03,49,6.40
2020,04,17,03,50,6.40
2020,04,17,03,51,6.50
2020,04,17,03,52,6.60
2020,04,17,03,53,6.60
2020,04,17,03,54,6.60
2020,04,17,03,55,6.60
2020,04,17,03,56,6.60
2020,04,17,03,57,6.60
2020,04,17,03,58,6.60
2020,04,17,03,59,6.60
2020,04,17,04,00,6.70
2020,04,17,04,01,6.80
2020,04,17,04,02,6.80
2020,04,17,04,03,6.90
2020,04,17,04,04,7.00
2020,04,17,04,05,7.00
2020,04,17,04,06,7.10
2020,04,17,04,07,7.10
2020,04,17,04,08,7.20
2020,04,17,04,09,7.20
2020,04,17,04,10,7.20
2020,04,17,04,11,7.20
2020,04,17,04,12,7.20
2020,04,17,04,13,7.20
2020,04,17,04,14,7.20
2020,04,17,04,15,7.20
2020,04,17,04,16,7.20
2020,04,17,04,17,7.20
2020,04,17,04,18,7.20
2020,04,17,04,19,7.20
2020,04,17,04,20,7.30
2020,04,17,04,21,7.20
2020,04,17,04,22,7.20
2020,04,17,04,23,7.20
2020,04,17,04,24,7.10
2020,04,17,04,25,7.10
2020,04,17,04,26,7.00
2020,04,17,04,27,7.00
2020,04,17,04,28,7.00
2020,04,17,04,29,7.00
2020,04,17,04,30,6.90
2020,04,17,04,31,6.90
2020,04,17,04,32,6.90
2020,04,17,04,33,6.90
2020,04,17,04,34,6.90
2020,04,17,04,35,6.90
2020,04,17,04,36,6.90
2020,04,17,04,37,6.90
2020,04,17,04,38,6.90
2020,04,17,04,39,6.90
2020,04,17,04,40,6.90
2020,04,17,04,41,6.90
2020,04,17,04,42,6.90
2020,04,17,04,43,6.90
2020,04,17,04,44,6.90
2020,04,17,04,45,6.90
2020,04,17,04,46,6.90
2020,04,17,04,47,6.90
2020,04,17,04,48,6.90
2020,04,17,04,49,6.90
2020,04,17,04,50,6.90
2020,04,17,04,51,6.90
2020,04,17,04,52,6.90
2020,04,17,04,53,6.90
2020,04,17,04,54,6.80
2020,04,17,04,55,6.80
2020,04,17,04,56,6.80
2020,04,17,04,57,6.80
2020,04,17,04,58,6.70
2020,04,17,04,59,6.80
2020,04,17,05,00,6.80
2020,04,17,05,01,6.80
2020,04,17,05,02,6.80
2020,04,17,05,03,6.80
2020,04,17,05,04,6.80
2020,04,17,05,05,6.90
2020,04,17,05,06,6.90
2020,04,17,05,07,6.90
2020,04,17,05,08,7.00
2020,04,17,05,09,7.00
2020,04,17,05,10,7.00
2020,04,17,05,11,7.00
2020,04,17,05,12,6.90
2020,04,17,05,13,6.90
2020,04,17,05,14,6.80
2020,04,17,05,15,6.80
2020,04,17,05,16,6.80
2020,04,17,05,17,6.80
2020,04,17,05,18,6.80
2020,04,17,05,19,6.70
2020,04,17,05,20,6.60
2020,04,17,05,21,6.60
2020,04,17,05,22,6.60
2020,04,17,05,23,6.60
2020,04,17,05,24,6.60
2020,04,17,05,25,6.60
2020,04,17,05,26,6.50
2020,04,17,05,27,6.40
2020,04,17,05,28,6.40
2020,04,17,05,29,6.40
2020,04,17,05,30,6.40
2020,04,17,05,31,6.40
2020,04,17,05,32,6.40
2020,04,17,05,33,6.40
2020,04,17,05,34,6.30
2020,04,17,05,35,6.30
2020,04,17,05,36,6.30
2020,04,17,05,37,6.30
2020,04,17,05,38,6.20
2020,04,17,05,39,6.20
2020,04,17,05,40,6.20
2020,04,17,05,41,6.20
2020,04,17,05,42,6.20
2020,04,17,05,43,6.20
2020,04,17,05,44,6.20
2020,04,17,05,45,6.20
2020,04,17,05,46,6.20
2020,04,17,05,47,6.20
2020,04,17,05,48,6.20
2020,04,17,05,49,6.20
2020,04,17,05,50,6.20
2020,04,17,05,51,6.20
2020,04,17,05,52,6.20
2020,04,17,05,53,6.20
2020,04,17,05,54,6.10
2020,04,17,05,55,6.10
2020,04,17,05,56,6.10
2020,04,17,05,57,6.00
2020,04,17,05,58,6.00
2020,04,17,05,59,6.00
2020,04,17,06,00,6.00
2020,04,17,06,01,6.00
2020,04,17,06,02,6.00
2020,04,17,06,03,6.00
2020,04,17,06,04,6.10
2020,04,17,06,05,6.10
2020,04,17,06,06,6.20
2020,04,17,06,07,6.20
2020,04,17,06,08,6.20
2020,04,17,06,09,6.20
2020,04,17,06,10,6.20
2020,04,17,06,11,6.20
2020,04,17,06,12,6.20
2020,04,17,06,13,6.10
2020,04,17,06,14,6.10
2020,04,17,06,15,6.10
2020,04,17,06,16,6.10
2020,04,17,06,17,6.00
2020,04,17,06,18,6.00
2020,04,17,06,19,6.00
2020,04,17,06,20,6.00
2020,04,17,06,21,6.00
2020,04,17,06,22,5.90
2020,04,17,06,23,5.90
2020,04,17,06,24,5.90
2020,04,17,06,25,5.80
2020,04,17,06,26,5.80
2020,04,17,06,27,5.80
2020,04,17,06,28,5.80
2020,04,17,06,29,5.80
2020,04,17,06,30,5.70
2020,04,17,06,31,5.70
2020,04,17,06,32,5.70
2020,04,17,06,33,5.70
2020,04,17,06,34,5.80
2020,04,17,06,35,5.80
2020,04,17,06,36,5.90
2020,04,17,06,37,5.90
2020,04,17,06,38,5.90
2020,04,17,06,39,6.00
2020,04,17,06,40,6.00
2020,04,17,06,41,6.10
2020,04,17,06,42,6.20
2020,04,17,06,43,6.30
2020,04,17,06,44,6.40
2020,04,17,06,45,6.40
2020,04,17,06,46,6.50
2020,04,17,06,47,6.60
2020,04,17,06,48,6.60
2020,04,17,06,49,6.60
2020,04,17,06,50,6.60
2020,04,17,06,51,6.50
2020,04,17,06,52,6.40
2020,04,17,06,53,6.40
2020,04,17,06,54,6.40
2020,04,17,06,55,6.40
2020,04,17,06,56,6.40
2020,04,17,06,57,6.30
2020,04,17,06,58,6.40
2020,04,17,06,59,6.40
2020,04,17,07,00,6.40
2020,04,17,07,01,6.40
2020,04,17,07,02,6.40
2020,04,17,07,03,6.40
2020,04,17,07,04,6.40
2020,04,17,07,05,6.50
2020,04,17,07,06,6.60
2020,04,17,07,07,6.60
2020,04,17,07,08,6.70
2020,04,17,07,09,6.70
2020,04,17,07,10,6.80
2020,04,17,07,11,6.80
2020,04,17,07,12,6.80
2020,04,17,07,13,6.80
2020,04,17,07,14,6.80
2020,04,17,07,15,6.80
2020,04,17,07,16,6.80
2020,04,17,07,17,6.80
2020,04,17,07,18,6.70
2020,04,17,07,19,6.70
2020,04,17,07,20,6.70
2020,04,17,07,21,6.70
2020,04,17,07,22,6.70
2020,04,17,07,23,6.70
2020,04,17,07,24,6.70
2020,04,17,07,25,6.70
2020,04,17,07,26,6.70
2020,04,17,07,27,6.80
2020,04,17,07,28,6.80
2020,04,17,07,29,6.80
2020,04,17,07,30,6.90
2020,04,17,07,31,6.90
2020,04,17,07,32,7.00
2020,04,17,07,33,7.10
2020,04,17,07,34,7.10
2020,04,17,07,35,7.20
2020,04,17,07,36,7.20
2020,04,17,07,37,7.20
2020,04,17,07,38,7.20
2020,04,17,07,39,7.20
2020,04,17,07,40,7.20
2020,04,17,07,41,7.20
2020,04,17,07,42,7.20
2020,04,17,07,43,7.20
2020,04,17,07,44,7.20
2020,04,17,07,45,7.20
2020,04,17,07,46,7.20
2020,04,17,07,47,7.20
2020,04,17,07,48,7.20
2020,04,17,07,49,7.30
2020,04,17,07,50,7.30
2020,04,17,07,51,7.40
2020,04,17,07,52,7.50
2020,04,17,07,53,7.50
2020,04,17,07,54,7.50
2020,04,17,07,55,7.50
2020,04,17,07,56,7.60
2020,04,17,07,57,7.60
2020,04,17,07,58,7.70
2020,04,17,07,59,7.80
2020,04,17,08,00,7.80
2020,04,17,08,01,7.90
2020,04,17,08,02,8.00
2020,04,17,08,03,8.10
2020,04,17,08,04,8.30
2020,04,17,08,05,8.40
2020,04,17,08,06,8.50
2020,04,17,08,07,8.60
2020,04,17,08,08,8.70
2020,04,17,08,09,8.70
2020,04,17,08,10,8.70
2020,04,17,08,11,8.70
2020,04,17,08,12,8.70
2020,04,17,08,13,8.70
2020,04,17,08,14,8.80
2020,04,17,08,15,8.90
2020,04,17,08,16,8.90
2020,04,17,08,17,9.00
2020,04,17,08,18,9.00
2020,04,17,08,19,9.00
2020,04,17,08,20,9.00
2020,04,17,08,21,9.10
2020,04,17,08,22,9.20
2020,04,17,08,23,9.20
2020,04,17,08,24,9.10
2020,04,17,08,25,9.20
2020,04,17,08,26,9.20
2020,04,17,08,27,9.20
2020,04,17,08,28,9.20
2020,04,17,08,29,9.20
2020,04,17,08,30,9.30
2020,04,17,08,31,9.40
2020,04,17,08,32,9.50
2020,04,17,08,33,9.50
2020,04,17,08,34,9.50
2020,04,17,08,35,9.50
2020,04,17,08,36,9.50
2020,04,17,08,37,9.50
2020,04,17,08,38,9.50
2020,04,17,08,39,9.50
2020,04,17,08,40,9.50
2020,04,17,08,41,9.60
2020,04,17,08,42,9.60
2020,04,17,08,43,9.70
2020,04,17,08,44,9.70
2020,04,17,08,45,9.70
2020,04,17,08,46,9.80
2020,04,17,08,47,9.80
2020,04,17,08,48,9.90
2020,04,17,08,49,9.90
2020,04,17,08,50,9.90
2020,04,17,08,51,9.90
2020,04,17,08,52,9.90
2020,04,17,08,53,9.90
2020,04,17,08,54,10.00
2020,04,17,08,55,10.10
2020,04,17,08,56,10.10
2020,04,17,08,57,10.00
2020,04,17,08,58,10.00
2020,04,17,08,59,10.00
2020,04,17,09,00,10.10
2020,04,17,09,01,10.10
2020,04,17,09,02,10.10
2020,04,17,09,03,10.20
2020,04,17,09,04,10.20
2020,04,17,09,05,10.20
2020,04,17,09,06,10.20
2020,04,17,09,07,10.10
2020,04,17,09,08,10.20
2020,04,17,09,09,10.30
2020,04,17,09,10,10.30
2020,04,17,09,11,10.40
2020,04,17,09,12,10.30
2020,04,17,09,13,10.30
2020,04,17,09,14,10.20
2020,04,17,09,15,10.20
2020,04,17,09,16,10.20
2020,04,17,09,17,10.30
2020,04,17,09,18,10.30
2020,04,17,09,19,10.30
2020,04,17,09,20,10.30
2020,04,17,09,21,10.30
2020,04,17,09,22,10.30
2020,04,17,09,23,10.30
2020,04,17,09,24,10.30
2020,04,17,09,25,10.40
2020,04,17,09,26,10.40
2020,04,17,09,27,10.40
2020,04,17,09,28,10.40
2020,04,17,09,29,10.40
2020,04,17,09,30,10.40
2020,04,17,09,31,10.40
2020,04,17,09,32,10.50
2020,04,17,09,33,10.50
2020,04,17,09,34,10.40
2020,04,17,09,35,10.40
2020,04,17,09,36,10.40
2020,04,17,09,37,10.50
2020,04,17,09,38,10.60
2020,04,17,09,39,10.60
2020,04,17,09,40,10.60
2020,04,17,09,41,10.70
2020,04,17,09,42,10.70
2020,04,17,09,43,10.80
2020,04,17,09,44,10.80
2020,04,17,09,45,10.90
2020,04,17,09,46,10.80
2020,04,17,09,47,10.80
2020,04,17,09,48,10.70
2020,04,17,09,49,10.70
2020,04,17,09,50,10.70
2020,04,17,09,51,10.70
2020,04,17,09,52,10.60
2020,04,17,09,53,10.70
2020,04,17,09,54,10.70
2020,04,17,09,55,10.70
2020,04,17,09,56,10.80
2020,04,17,09,57,10.80
2020,04,17,09,58,10.80
2020,04,17,09,59,10.90
2020,04,17,10,00,11.00
2020,04,17,10,01,11.10
2020,04,17,10,02,11.20
2020,04,17,10,03,11.20
2020,04,17,10,04,11.30
2020,04,17,10,05,11.30
2020,04,17,10,06,11.40
2020,04,17,10,07,11.40
2020,04,17,10,08,11.40
2020,04,17,10,09,11.40
2020,04,17,10,10,11.40
2020,04,17,10,11,11.40
2020,04,17,10,12,11.40
2020,04,17,10,13,11.40
2020,04,17,10,14,11.40
2020,04,17,10,15,11.40
2020,04,17,10,16,11.60
2020,04,17,10,17,11.60
2020,04,17,10,18,11.70
2020,04,17,10,19,11.80
2020,04,17,10,20,11.90
2020,04,17,10,21,11.90
2020,04,17,10,22,12.00
2020,04,17,10,23,11.90
2020,04,17,10,24,11.90
2020,04,17,10,25,11.90
2020,04,17,10,26,11.90
2020,04,17,10,27,11.90
2020,04,17,10,28,11.90
2020,04,17,10,29,11.80
2020,04,17,10,30,11.80
2020,04,17,10,31,11.80
2020,04,17,10,32,11.80
2020,04,17,10,33,11.80
2020,04,17,10,34,11.70
2020,04,17,10,35,11.60
2020,04,17,10,36,11.50
2020,04,17,10,37,11.40
2020,04,17,10,38,11.40
2020,04,17,10,39,11.40
2020,04,17,10,40,11.40
2020,04,17,10,41,11.40
2020,04,17,10,42,11.40
2020,04,17,10,43,11.40
2020,04,17,10,44,11.40
2020,04,17,10,45,11.40
2020,04,17,10,46,11.50
2020,04,17,10,47,11.60
2020,04,17,10,48,11.70
2020,04,17,10,49,11.70
2020,04,17,10,50,11.80
2020,04,17,10,51,11.80
2020,04,17,10,52,11.80
2020,04,17,10,53,11.80
2020,04,17,10,54,11.80
2020,04,17,10,55,11.90
2020,04,17,10,56,11.80
2020,04,17,10,57,11.80
2020,04,17,10,58,11.70
2020,04,17,10,59,11.60
2020,04,17,11,00,11.40
2020,04,17,11,01,11.40
2020,04,17,11,02,11.40
2020,04,17,11,03,11.40
2020,04,17,11,04,11.30
2020,04,17,11,05,11.30
2020,04,17,11,06,11.30
2020,04,17,11,07,11.20
2020,04,17,11,08,11.10
2020,04,17,11,09,11.10
2020,04,17,11,10,11.10
2020,04,17,11,11,11.20
2020,04,17,11,12,11.10
2020,04,17,11,13,11.20
2020,04,17,11,14,11.20
2020,04,17,11,15,11.30
2020,04,17,11,16,11.40
2020,04,17,11,17,11.30
2020,04,17,11,18,11.30
2020,04,17,11,19,11.30
2020,04,17,11,20,11.30
2020,04,17,11,21,11.30
2020,04,17,11,22,11.30
2020,04,17,11,23,11.30
2020,04,17,11,24,11.30
2020,04,17,11,25,11.30
2020,04,17,11,26,11.30
2020,04,17,11,27,11.30
2020,04,17,11,28,11.20
2020,04,17,11,29,11.10
2020,04,17,11,30,11.10
2020,04,17,11,31,11.10
2020,04,17,11,32,11.10
2020,04,17,11,33,11.20
2020,04,17,11,34,11.20
2020,04,17,11,35,11.20
2020,04,17,11,36,11.20
2020,04,17,11,37,11.10
2020,04,17,11,38,11.10
2020,04,17,11,39,11.10
2020,04,17,11,40,10.90
2020,04,17,11,41,10.80
2020,04,17,11,42,10.80
2020,04,17,11,43,10.80
2020,04,17,11,44,10.70
2020,04,17,11,45,10.70
2020,04,17,11,46,10.70
2020,04,17,11,47,10.70
2020,04,17,11,48,10.70
2020,04,17,11,49,10.70
2020,04,17,11,50,10.60
2020,04,17,11,51,10.60
2020,04,17,11,52,10.60
2020,04,17,11,53,10.60
2020,04,17,11,54,10.40
2020,04,17,11,55,10.40
2020,04,17,11,56,10.40
2020,04,17,11,57,10.50
2020,04,17,11,58,10.70
2020,04,17,11,59,10.70
2020,04,17,12,00,10.80
2020,04,17,12,01,10.90
2020,04,17,12,02,10.80
2020,04,17,12,03,10.90
2020,04,17,12,04,10.90
2020,04,17,12,05,10.90
2020,04,17,12,06,11.00
2020,04,17,12,07,11.10
2020,04,17,12,08,11.00
2020,04,17,12,09,10.90
2020,04,17,12,10,10.80
2020,04,17,12,11,10.80
2020,04,17,12,12,10.70
2020,04,17,12,13,10.60
2020,04,17,12,14,10.60
2020,04,17,12,15,10.60
2020,04,17,12,16,10.60
2020,04,17,12,17,10.60
2020,04,17,12,18,10.60
2020,04,17,12,19,10.60
2020,04,17,12,20,10.70
2020,04,17,12,21,10.80
2020,04,17,12,22,10.80
2020,04,17,12,23,10.80
2020,04,17,12,24,10.80
2020,04,17,12,25,10.70
2020,04,17,12,26,10.60
2020,04,17,12,27,10.60
2020,04,17,12,28,10.60
2020,04,17,12,29,10.60
2020,04,17,12,30,10.60
2020,04,17,12,31,10.70
2020,04,17,12,32,10.70
2020,04,17,12,33,10.60
2020,04,17,12,34,10.50
2020,04,17,12,35,10.50
2020,04,17,12,36,10.60
2020,04,17,12,37,10.60
2020,04,17,12,38,10.60
2020,04,17,12,39,10.60
2020,04,17,12,40,10.60
2020,04,17,12,41,10.60
2020,04,17,12,42,10.60
2020,04,17,12,43,10.60
2020,04,17,12,44,10.60
2020,04,17,12,45,10.60
2020,04,17,12,46,10.60
2020,04,17,12,47,10.60
2020,04,17,12,48,10.60
2020,04,17,12,49,10.60
2020,04,17,12,50,10.60
2020,04,17,12,51,10.60
2020,04,17,12,52,10.60
2020,04,17,12,53,10.60
2020,04,17,12,54,10.60
2020,04,17,12,55,10.60
2020,04,17,12,56,10.70
2020,04,17,12,57,10.70
2020,04,17,12,58,10.80
2020,04,17,12,59,10.90
2020,04,17,13,00,11.00
2020,04,17,13,01,11.10
2020,04,17,13,02,11.10
2020,04,17,13,03,11.00
2020,04,17,13,04,11.00
2020,04,17,13,05,10.90
2020,04,17,13,06,10.90
2020,04,17,13,07,10.90
2020,04,17,13,08,11.00
2020,04,17,13,09,11.10
2020,04,17,13,10,11.10
2020,04,17,13,11,11.10
2020,04,17,13,12,11.20
2020,04,17,13,13,11.20
2020,04,17,13,14,11.10
2020,04,17,13,15,11.10
2020,04,17,13,16,11.20
2020,04,17,13,17,11.40
2020,04,17,13,18,11.60
2020,04,17,13,19,11.70
2020,04,17,13,20,11.80
2020,04,17,13,21,11.80
2020,04,17,13,22,11.80
2020,04,17,13,23,11.80
2020,04,17,13,24,11.80
2020,04,17,13,25,11.90
2020,04,17,13,26,12.00
2020,04,17,13,27,12.20
2020,04,17,13,28,12.20
2020,04,17,13,29,12.30
2020,04,17,13,30,12.30
2020,04,17,13,31,12.30
2020,04,17,13,32,12.30
2020,04,17,13,33,12.30
2020,04,17,13,34,12.30
2020,04,17,13,35,12.30
2020,04,17,13,36,12.30
2020,04,17,13,37,12.20
2020,04,17,13,38,12.20
2020,04,17,13,39,12.10
2020,04,17,13,40,12.10
2020,04,17,13,41,12.00
2020,04,17,13,42,11.90
2020,04,17,13,43,11.90
2020,04,17,13,44,11.90
2020,04,17,13,45,12.00
2020,04,17,13,46,12.10
2020,04,17,13,47,12.10
2020,04,17,13,48,12.20
2020,04,17,13,49,12.20
2020,04,17,13,50,12.30
2020,04,17,13,51,12.50
2020,04,17,13,52,12.50
2020,04,17,13,53,12.60
2020,04,17,13,54,12.60
2020,04,17,13,55,12.60
2020,04,17,13,56,12.60
2020,04,17,13,57,12.60
2020,04,17,13,58,12.60
2020,04,17,13,59,12.50
2020,04,17,14,00,12.50
2020,04,17,14,01,12.30
2020,04,17,14,02,12.30
2020,04,17,14,03,12.10
2020,04,17,14,04,12.00
2020,04,17,14,05,11.90
2020,04,17,14,06,11.90
2020,04,17,14,07,11.90
2020,04,17,14,08,11.80
2020,04,17,14,09,11.70
2020,04,17,14,10,11.70
2020,04,17,14,11,11.60
2020,04,17,14,12,11.60
2020,04,17,14,13,11.50
2020,04,17,14,14,11.40
2020,04,17,14,15,11.40
2020,04,17,14,16,11.40
2020,04,17,14,17,11.40
2020,04,17,14,18,11.40
2020,04,17,14,19,11.40
2020,04,17,14,20,11.30
2020,04,17,14,21,11.30
2020,04,17,14,22,11.30
2020,04,17,14,23,11.30
2020,04,17,14,24,11.30
2020,04,17,14,25,11.20
2020,04,17,14,26,11.20
2020,04,17,14,27,11.20
2020,04,17,14,28,11.20
2020,04,17,14,29,11.10
2020,04,17,14,30,11.10
2020,04,17,14,31,11.10
2020,04,17,14,32,11.10
2020,04,17,14,33,11.20
2020,04,17,14,34,11.20
2020,04,17,14,35,11.10
2020,04,17,14,36,11.10
2020,04,17,14,37,11.10
2020,04,17,14,38,11.10
2020,04,17,14,39,11.20
2020,04,17,14,40,11.20
2020,04,17,14,41,11.20
2020,04,17,14,42,11.20
2020,04,17,14,43,11.20
2020,04,17,14,44,11.20
2020,04,17,14,45,11.30
2020,04,17,14,46,11.30
2020,04,17,14,47,11.30
2020,04,17,14,48,11.20
2020,04,17,14,49,11.30
2020,04,17,14,50,11.40
2020,04,17,14,51,11.40
2020,04,17,14,52,11.40
2020,04,17,14,53,11.40
2020,04,17,14,54,11.50
2020,04,17,14,55,11.60
2020,04,17,14,56,11.60
2020,04,17,14,57,11.70
2020,04,17,14,58,11.80
2020,04,17,14,59,11.80
2020,04,17,15,00,11.80
2020,04,17,15,01,11.90
2020,04,17,15,02,12.00
2020,04,17,15,03,12.00
2020,04,17,15,04,12.00
2020,04,17,15,05,12.00
2020,04,17,15,06,12.00
2020,04,17,15,07,11.90
2020,04,17,15,08,11.90
2020,04,17,15,09,11.90
2020,04,17,15,10,11.90
2020,04,17,15,11,11.90
2020,04,17,15,12,11.90
2020,04,17,15,13,11.90
2020,04,17,15,14,11.90
2020,04,17,15,15,12.00
2020,04,17,15,16,12.10
2020,04,17,15,17,12.20
2020,04,17,15,18,12.30
2020,04,17,15,19,12.40
2020,04,17,15,20,12.40
2020,04,17,15,21,12.50
2020,04,17,15,22,12.60
2020,04,17,15,23,12.70
2020,04,17,15,24,12.80
2020,04,17,15,25,13.00
2020,04,17,15,26,13.10
2020,04,17,15,27,13.30
2020,04,17,15,28,13.40
2020,04,17,15,29,13.50
2020,04,17,15,30,13.70
2020,04,17,15,31,13.80
2020,04,17,15,32,13.80
2020,04,17,15,33,13.70
2020,04,17,15,34,13.70
2020,04,17,15,35,13.60
2020,04,17,15,36,13.50
2020,04,17,15,37,13.40
2020,04,17,15,38,13.40
2020,04,17,15,39,13.40
2020,04,17,15,40,13.40
2020,04,17,15,41,13.40
2020,04,17,15,42,13.30
2020,04,17,15,43,13.30
2020,04,17,15,44,13.30
2020,04,17,15,45,13.20
2020,04,17,15,46,13.20
2020,04,17,15,47,13.10
2020,04,17,15,48,13.00
2020,04,17,15,49,12.90
2020,04,17,15,50,12.80
2020,04,17,15,51,12.80
2020,04,17,15,52,12.80
2020,04,17,15,53,12.70
2020,04,17,15,54,12.60
2020,04,17,15,55,12.50
2020,04,17,15,56,12.30
2020,04,17,15,57,12.20
2020,04,17,15,58,12.00
2020,04,17,15,59,12.00
2020,04,17,16,00,11.90
2020,04,17,16,01,11.80
2020,04,17,16,02,11.70
2020,04,17,16,03,11.60
2020,04,17,16,04,11.70
2020,04,17,16,05,11.70
2020,04,17,16,06,11.70
2020,04,17,16,07,11.60
2020,04,17,16,08,11.60
2020,04,17,16,09,11.60
2020,04,17,16,10,11.60
2020,04,17,16,11,11.70
2020,04,17,16,12,11.70
2020,04,17,16,13,11.70
2020,04,17,16,14,11.60
2020,04,17,16,15,11.60
2020,04,17,16,16,11.60
2020,04,17,16,17,11.60
2020,04,17,16,18,11.70
2020,04,17,16,19,11.80
2020,04,17,16,20,11.80
2020,04,17,16,21,11.80
2020,04,17,16,22,11.80
2020,04,17,16,23,11.80
2020,04,17,16,24,11.80
2020,04,17,16,25,11.90
2020,04,17,16,26,11.90
2020,04,17,16,27,11.90
2020,04,17,16,28,11.90
2020,04,17,16,29,11.90
2020,04,17,16,30,12.00
2020,04,17,16,31,12.00
2020,04,17,16,32,12.10
2020,04,17,16,33,12.10
2020,04,17,16,34,12.20
2020,04,17,16,35,12.20
2020,04,17,16,36,12.30
2020,04,17,16,37,12.30
2020,04,17,16,38,12.40
2020,04,17,16,39,12.40
2020,04,17,16,40,12.40
2020,04,17,16,41,12.40
2020,04,17,16,42,12.30
2020,04,17,16,43,12.20
2020,04,17,16,44,12.20
2020,04,17,16,45,12.20
2020,04,17,16,46,12.20
2020,04,17,16,47,12.20
2020,04,17,16,48,12.20
2020,04,17,16,49,12.20
2020,04,17,16,50,12.30
2020,04,17,16,51,12.30
2020,04,17,16,52,12.30
2020,04,17,16,53,12.40
2020,04,17,16,54,12.50
2020,04,17,16,55,12.60
2020,04,17,16,56,12.70
2020,04,17,16,57,12.80
2020,04,17,16,58,12.80
2020,04,17,16,59,12.80
2020,04,17,17,00,12.80
2020,04,17,17,01,12.80
2020,04,17,17,02,12.90
2020,04,17,17,03,12.90
2020,04,17,17,04,12.90
2020,04,17,17,05,12.80
2020,04,17,17,06,12.80
2020,04,17,17,07,12.90
2020,04,17,17,08,12.90
2020,04,17,17,09,12.80
2020,04,17,17,10,12.80
2020,04,17,17,11,12.80
2020,04,17,17,12,12.80
2020,04,17,17,13,12.80
2020,04,17,17,14,12.80
2020,04,17,17,15,12.80
2020,04,17,17,16,12.80
2020,04,17,17,17,12.80
2020,04,17,17,18,12.80
2020,04,17,17,19,12.80
2020,04,17,17,20,12.80
2020,04,17,17,21,12.80
2020,04,17,17,22,12.80
2020,04,17,17,23,12.70
2020,04,17,17,24,12.70
2020,04,17,17,25,12.70
2020,04,17,17,26,12.80
2020,04,17,17,27,12.80
2020,04,17,17,28,12.80
2020,04,17,17,29,12.80
2020,04,17,17,30,12.80
2020,04,17,17,31,12.80
2020,04,17,17,32,12.80
2020,04,17,17,33,12.80
2020,04,17,17,34,12.80
2020,04,17,17,35,12.90
2020,04,17,17,36,12.90
2020,04,17,17,37,13.00
2020,04,17,17,38,13.00